Regional Weather Roundup
Issued by NWS

Home | Current Version | Previous Version | Text Only | Print | Product List | Glossary On
Versions: 1 2 3 4 5 6 7 8 9 10 11 12 13 14 15 16 17 18 19 20 21 22 23 24 25 26 27 28 29 30 31 32 33 34 35 36 37 38 39 40 41 42 43 44 45 46 47 48 49 50
000
ASUS46 KLOX 221012
RWRCA

SOUTHERN CALIFORNIA WEATHER ROUNDUP
NATIONAL WEATHER SERVICE OXNARD CALIFORNIA
200 AM PST SAT NOV 22 2014

NOTE: "FAIR" INDICATES FEW OR NO CLOUDS BELOW 12,000 FEET WITH NO
SIGNIFICANT WEATHER AND/OR OBSTRUCTIONS TO VISIBILITY.

  -  STATIONS PRECEEDED BY AN ASTERISK (*) ARE NOT NWS OR FAA
     STATIONS AND ARE NOT SUBJECT TO NWS AND FAA QUALITY CONTROL.

CAZ041-042-087-221100-
LA AND ORANGE COUNTY COASTAL AREAS


CITY           SKY/WX    TMP DP  RH WIND       PRES   REMARKS
L.A. DOWNTOWN  CLEAR     57  43  59 CALM      30.06S
L.A. AIRPORT   CLEAR     58  44  60 NE6       30.07S
LONG BEACH     PTCLDY    56  48  74 CALM      30.07S

CITY           SKY/WX    TMP DP  RH WIND       PRES   REMARKS
AVALON           N/A     55 N/A N/A MISG        N/A
FULLERTON      CLEAR     55  45  68 E5        30.06S
*GETTY CENTER    N/A     57  36  44 N10         N/A
HAWTHORNE      CLEAR     59  46  62 NE3       30.07S
*LOS ALAMITOS  FAIR      55  48  78 NE5       30.07S
*REDONDO BEACH   N/A     54  49  83 CALM      30.05S
SANTA ANA      CLEAR     59  48  67 CALM      30.07R
STA MONICA APT CLEAR     57  40  52 N5        30.07R
*UCLA            N/A     57  37  47 N6        30.05R

$$

CAZ547-548-048-221100-
LA COUNTY VALLEYS AND INLAND EMPIRE


CITY           SKY/WX    TMP DP  RH WIND       PRES   REMARKS
BURBANK        CLEAR     53  38  56 N3        30.07R
VAN NUYS       CLEAR     52  42  69 CALM      30.07R

CITY           SKY/WX    TMP DP  RH WIND       PRES   REMARKS
CORONA AIRPORT SUNNY     42  39  89 CALM      30.09R
*CHATSWORTH      N/A     50  41  70 CALM      30.06S
CHINO          CLEAR     48  45  89 N3        30.10R
*CLAREMONT       N/A     48  38  68 CALM        N/A
MARCH AFB      CLEAR     43  40  89 CALM      30.09R
*NORTHRIDGE      N/A     50  39  66 CALM        N/A
ONTARIO        CLEAR     52  45  77 N6        30.08R
RIVERSIDE      CLEAR     52  47  83 E5        30.08S
SAN BERNARDINO NOT AVBL
*WHITEMAN AP   NOT AVBL
*WOODLAND HILL   N/A     46  41  81 SE2         N/A

$$

CAZ054-055-221100-
LA AND SAN BERNARDINO COUNTY MOUNTAINS


CITY           SKY/WX    TMP DP  RH WIND       PRES   REMARKS
*ACTON           N/A     40  33  76 N7          N/A
*BIG BEAR AIRP MOSUNNY   25  21  86 CALM      30.19S
*BIG PINES       N/A     39  13  34 CALM        N/A
MT WILSON NWS    N/A     45  18  33 MISG        N/A
SANDBERG       CLEAR     46  30  53 NW23      30.15R

$$

CAZ028-029-059-060-099-221100-
ANTELOPE VALLEY AND SURROUNDING AREAS


CITY           SKY/WX    TMP DP  RH WIND       PRES   REMARKS
LANCASTER      CLEAR     35  30  82 CALM      30.12S
PALMDALE       CLEAR     39  30  70 S6        30.12R WCI  35

CITY           SKY/WX    TMP DP  RH WIND       PRES   REMARKS
29 PALMS       CLEAR     49  35  58 NW7       30.15S
BARSTOW/DAGGET CLEAR     47  36  65 W13       30.10R
BISHOP         CLEAR     34  14  43 N7        30.12R WCI  28
CHINA LAKE     CLEAR     44  32  62 W5        30.07S
EDWARDS AFB    PTCLDY    37  32  83 SW6       30.10R WCI  32
MOJAVE         FAIR      45  30  57 CALM      30.10S
NEEDLES        CLEAR     55  21  26 S6        30.03R
VICTORVILLE    CLEAR     39  32  75 S6        30.12R WCI  35

$$

CAZ039-040-221100-
VENTURA AND SANTA BARBARA COUNTY COAST


CITY           SKY/WX    TMP DP  RH WIND       PRES   REMARKS
CAMARILLO      CLEAR     51  42  71 NE6       30.06R
NWS OXNARD       N/A     54  41  61 CALM      30.06R
OXNARD AIRPORT PTCLDY    58  40  51 NE9       30.06R
*POINT MUGU    CLEAR     54  43  66 NE5       30.06S
SBA APT/GOLETA PTCLDY    53  37  54 SE3       30.04S
*SANTA BARBARA   N/A     56  42  61 CALM      30.12F
*VENTURA         N/A     58  37  45 N8        30.11S

$$

CAZ044-045-221100-
VENTURA COUNTY VALLEYS


CITY           SKY/WX    TMP DP  RH WIND       PRES   REMARKS
*SIMI VALLEY     N/A     51  36  57 CALM      30.04S
*OJAI            N/A     43  39  86 CALM      30.04R
*FILLMORE        N/A     47  40  78 CALM      29.98S

$$

CAZ053-221100-
VENTURA COUNTY MOUNTAINS


CITY           SKY/WX    TMP DP  RH WIND       PRES   REMARKS
*LOCKWOOD VLY    N/A     34  25  69 MISG        N/A
*ROSE VALLEY     N/A     34  32  93 MISG        N/A

$$

CAZ034-035-036-221100-
CENTRAL COAST AND SANTA YNEZ VALLEY


CITY           SKY/WX    TMP DP  RH WIND       PRES   REMARKS
SAN LUIS OBISP CLEAR     47  43  86 SE3       30.15R
SANTA MARIA    CLEAR     50  43  77 CALM      30.13F

CITY           SKY/WX    TMP DP  RH WIND       PRES   REMARKS
*CAL POLY SLO    N/A     57  46  67 N9          N/A
*LOMPOC        CLEAR     54  39  58 NW8       30.13S
*PISMO BEACH     N/A     52  46  78 NE1       30.15S
*SANTA YNEZ    FAIR      45  37  76 CALM      30.11S

$$

CAZ037-038-051-221100-
SAN LUIS OBISPO COUNTY INTERIOR AND CUYAMA VALLEY


CITY           SKY/WX    TMP DP  RH WIND       PRES   REMARKS
*CUYAMA          N/A     40  37  89 E1        30.18S
PASO ROBLES    CLEAR     45  41  86 CALM      30.18R

$$

CAZ032-033-061-221100-
SOUTHERN DESERTS


CITY           SKY/WX    TMP DP  RH WIND       PRES   REMARKS
BLYTHE         CLEAR     53  33  46 W7        30.02R
IMPERIAL       CLEAR     52  46  80 W5        30.00S
PALM SPRINGS   CLEAR     50  45  83 NW5       30.04S
THERMAL        CLEAR     53  44  71 CALM      30.00S

$$

ELSEWHERE ACROSS THE WESTERN UNITED STATES AND MEXICO


CITY           SKY/WX    TMP DP  RH WIND       PRES   REMARKS
DENVER, CO     CLEAR     40  17  39 S20       29.87F WCI  30
GRAND CANYON,  PTCLDY    15   7  70 CALM      30.15S
HONOLULU, HI   PTCLDY    79  66  65 NE8       30.07F
KAHULUI, MAUI  CLOUDY    73  66  78 SE3       30.08S
LAKE TAHOE, CA CLOUDY    44  37  76 S12       30.11F
LAS VEGAS, NV  CLEAR     51  29  42 SW7       30.02R
MAMMOTH LAKES, FAIR      27  16  63 CALM      30.16F
MEXICO CITY, M PTCLDY    55  48  76 NE5       30.31S
PHOENIX, AZ    CLEAR     51  30  44 E5        30.00R
PORTLAND, OR   LGT RAIN  49  47  93 VRB3      29.70R
RENO, NV       MOCLDY    47  36  65 CALM      30.01F
SALT LAKE CITY PTCLDY    39  24  55 SE7       29.95R WCI  34
SAN DIEGO, CA  CLEAR     58  51  78 CALM      30.08S
SAN FRANCISCO, CLOUDY    60  57  89 S10       30.10F
SAN JOSE, CA   CLOUDY    56  51  84 SE12      30.12F
SEATTLE, WA    PTCLDY    47  39  74 SW8G17    29.60R
TIJUANA, MEX   CLEAR     54  46  76 CALM      30.09R

$$

STATION/POSITION TIME  TEMP    WIND        PRES    VSBY  WAVE
                       AIR SEA DIR/SP/G                  HT/PER
                 (UTC) (F)     (DEG/KT/KT) (MB)    (MI)  (FT/S)
POINT ARGUELLO B NOT AVBL
WEST SANTA BARBA 1000   62 62  330/ 19/ 21 1018.0F         7/11
POINT CONCEPTION NOT AVBL
EAST SANTA BARBA 1000   65 65  320/  8/ 12 1017.7S
SANTA MONICA BAY 1000   64 66  340/  8/  8 1018.2R         4/ 8


USA.gov is the U.S. government's official web portal to all federal, state and local government web resources and services.